Regional Weather Roundup
Issued by NWS Cleveland, OH

Home | Current Version | Previous Version | Graphics & Text | Print | Product List | Glossary On
Versions: 1 2 3 4 5 6 7 8 9 10 11 12 13 14 15 16 17 18 19 20 21 22 23 24 25 26 27 28 29 30 31 32 33 34 35 36 37 38 39 40 41 42 43 44 45 46 47 48 49 50
000
ASUS41 KCLE 020002
RWRCLE
OHIO REGIONAL WEATHER ROUNDUP
NATIONAL WEATHER SERVICE CLEVELAND, OH
700 PM EST SUN MAR 01 2015

NOTE: "FAIR" INDICATES FEW OR NO CLOUDS BELOW 12,000 FEET WITH NO
SIGNIFICANT WEATHER AND/OR OBSTRUCTIONS TO VISIBILITY.

OHZ001>008-015>018-024>027-034-035-043-044-020100-
   NORTHWEST OHIO

CITY           SKY/WX    TMP DP  RH WIND       PRES   REMARKS
DEFIANCE       PTCLDY    21  17  84 SW5       30.25F WCI  15
FINDLAY        CLOUDY    24  20  84 W6        30.23S FOG     WCI  17
TOLEDO EXPRESS PTCLDY    16  13  88 W7        30.24S WCI   6
TOLEDO EXEC    PTCLDY    21  16  81 SW7       30.25S WCI  12
LIMA           CLOUDY    26  21  81 W7        30.23F WCI  18
$$

OHZ009>014-019>023-028>033-038-089-020100-
   NORTHEAST OHIO

CITY           SKY/WX    TMP DP  RH WIND       PRES   REMARKS
CLE-HOPKINS    LGT SNOW  24  21  88 N10       30.25S FOG     WCI  14
CLE-LAKEFRONT  CLOUDY    22  19  89 W6        30.24S FOG     WCI  14
CUY CO. ARPT   SNOWSHWR  25  23  93 W7        30.22F FOG     WCI  17
LORAIN-ELYRIA  CLOUDY    22  20  92 N3        30.23S
ASHTABULA      CLOUDY    24  20  84 W3        30.20S
AKRON-CANTON   LGT SNOW  32  29  88 W6        30.19R FOG     WCI  26
WOOSTER        LGT SNOW  28  26  92 NW5       30.20F FOG     WCI  23
MANSFIELD      CLOUDY    26  24  92 W3        30.20F
YOUNGSTOWN     LGT SNOW  31  29  92 W6        30.17S FOG     WCI  25
$$

OHZ042-051>053-060>062-070>072-077>081-020100-
  SOUTHWEST OHIO

CITY           SKY/WX    TMP DP  RH WIND       PRES   REMARKS
CINC-COVINGTON LGT SNOW  34  32  92 SW3       30.25F FOG
CINC-LUNKEN    LGT SNOW  33  32  96 CALM      30.29F FOG
HAMILTON       LGT SNOW  33  33 100 SW3       30.29R FOG
DAYTON         CLOUDY    32  29  88 SW5       30.24F WCI  27
WRIGHT-PAT AFB NOT AVBL
DAYTON GENERAL CLOUDY    32  31  96 W5        30.24F FOG     WCI  27
WILMINGTON     LGT SNOW  32  30  92 W7        30.24S FOG     WCI  26
$$

OHZ036-037-039>041-045>050-054>059-063>069-073>076-082>088-020100-
  CENTRAL AND SOUTHEAST OHIO

CITY           SKY/WX    TMP DP  RH WIND       PRES   REMARKS
COLUMBUS       DRIZZLE   32  31  96 W5        30.24R FOG     WCI  27
OSU AIRPORT    CLOUDY    32  30  92 W3        30.23S FOG
BOLTON FIELD   CLOUDY   N/A N/A N/A W5        30.24S
RICKENBACK AFB LGT SNOW  32  32  99 W5        30.25R VSB 1   WCI  27
NEWARK         CLOUDY    34  31  88 SW7       30.23R FOG     WCI  28
MARION         CLOUDY    26  23  88 NW5       30.24R FOG     WCI  20
LANCASTER      LGT SNOW  34  32  92 W6        30.24S FOG     WCI  29
ZANESVILLE     MIX PCPN  34  32  92 SW5       30.22S FOG     WCI  30
NEW PHILLY     LGT SNOW  34  31  88 CALM      30.22S VSB 1
$$



USA.gov is the U.S. government's official web portal to all federal, state and local government web resources and services.